www.pogodaiklimat.ru

Погода и климат >> Архив погоды >> Япония >> Абурацу


ПОГОДА в Абурацу

  • Прогноз погоды в Абурацу
  • Монитор погоды в Абурацу

АРХИВ ПОГОДЫ в Абурацу

Время (UTC), дата Ветер
(напр.,м/с)
 
Видим.   Явления Облачность Т
(С)
Тd
(С)
f
(%)
Тe
(С)
Тes
(С)
Комфортность P
(гПа)
Po
(гПа)
Тmin
(С)
Tmax
(С)
R
(мм)
R24
(мм)
S
(см)
06 19.08 С 2 14 км слаб. дождь н/о +25.9 +24.7 93 +37 +37 очень
душно
1008.0 1006.3 5
09 19.08 ЮЗ 1 11 км слаб. дождь н/о +25.3 +25.0 98 +36 +36 очень
душно
1008.1 1006.4
10 19.08 СЗ 1 6000 м слаб. дождь н/о +25.0 +24.7 98 +35 +35 очень
душно
1008.3 1006.6
11 19.08 СЗ 2 4200 м слаб. дождь н/о +25.0 +24.8 99 +35 +35 очень
душно
1008.6 1006.9
12 19.08 З 2 8000 м в посл. час дождь н/о +25.0 +24.8 99 +35 +35 очень
душно
1008.9 1007.2 +27.1 20
13 19.08 СЗ 3 7000 м слаб. дождь н/о +24.9 +24.7 99 +35 +35 очень
душно
1009.3 1007.6
14 19.08 З 2 6000 м слаб. дождь н/о +25.0 +25.0 100 +36 +36 очень
душно
1009.3 1007.6
15 19.08 З 3 10 км в посл. час дождь н/о +24.9 +24.7 99 +35 +35 очень
душно
1009.3 1007.6
16 19.08 З 2 5000 м слаб. дождь н/о +25.0 +25.0 100 +36 +36 очень
душно
1008.9 1007.2
17 19.08 СВ 1 4000 м слаб. дождь н/о +25.2 +25.2 100 +36 +36 очень
душно
1008.7 1007.0
18 19.08 З 2 7000 м слаб. дождь н/о +26.2 +26.0 99 +39 +39 очень
душно
1008.4 1006.7 8
19 19.08 ЮЗ 3 1500 м дождь н/о +26.7 +26.4 98 +41 +41 опасность
перегрева
1008.6 1006.9
20 19.08 З 3 20 км в посл. час дождь н/о +27.1 +26.1 94 +41 +41 опасность
перегрева
1008.7 1007.0
21 19.08 З 1 12 км {дождь} н/о +26.5 +26.2 98 +40 +40 очень
душно
1009.2 1007.5
22 19.08 З 2 9000 м в посл. час дождь н/о +26.7 +26.4 98 +41 +41 опасность
перегрева
1009.8 1008.1
23 19.08 З 2 16 км в посл. час дождь н/о +27.4 +26.4 94 +42 +42 опасность
перегрева
1009.9 1008.2
00 20.08 Ю 2 17 км слаб. дождь н/о +27.6 +26.6 94 +42 +42 опасность
перегрева
1010.2 1008.5 +24.8 25
01 20.08 Ю 2 20 км в посл. час дождь н/о +29.3 +26.7 86 +46 +46 опасность
перегрева
1010.3 1008.7
02 20.08 Ю 3 16 км в посл. час дождь н/о +29.1 +26.5 86 +45 +45 опасность
перегрева
1010.2 1008.6
03 20.08 Ю 3 16 км в посл. час дождь н/о +29.8 +26.0 80 +45 +45 опасность
перегрева
1010.3 1008.7
04 20.08 Ю 3 18 км н/о +29.4 +26.4 84 +45 +45 опасность
перегрева
1009.8 1008.2
05 20.08 Ю 4 18 км в посл. час дождь н/о +29.5 +26.7 85 +46 +46 опасность
перегрева
1009.5 1007.9
06 20.08 Ю 4 18 км {дождь} н/о +29.8 +26.4 82 +46 +46 опасность
перегрева
1009.3 1007.7 0.0
07 20.08 Ю 4 19 км в посл. час дождь н/о +29.3 +26.3 84 +45 +45 опасность
перегрева
1009.6 1008.0
08 20.08 Ю 4 20 км н/о +29.1 +26.1 84 +44 +44 опасность
перегрева
1009.6 1008.0
10 20.08 ЮВ 1 18 км н/о +28.4 +26.4 89 +43 +43 опасность
перегрева
1010.7 1009.0
11 20.08 Ю 1 16 км н/о +28.0 +26.8 93 +44 +44 опасность
перегрева
1011.1 1009.4
12 20.08 ЮЗ 1 19 км {дождь} н/о +27.8 +26.2 91 +42 +42 опасность
перегрева
1011.5 1009.8 +30.7 0.0
13 20.08 ЮЗ 2 18 км в посл. час дождь н/о +27.8 +26.6 93 +43 +43 опасность
перегрева
1011.6 1009.9
14 20.08 З 2 20 км в посл. час дождь н/о +27.0 +25.4 91 +39 +39 очень
душно
1011.5 1009.8
15 20.08 З 2 20 км {дождь} н/о +26.7 +25.8 95 +40 +40 очень
душно
1011.4 1009.7
16 20.08 З 2 20 км н/о +26.6 +25.4 93 +39 +39 очень
душно
1011.1 1009.4
17 20.08 З 2 19 км н/о +25.8 +25.1 96 +37 +37 очень
душно
1010.7 1009.0
18 20.08 З 2 20 км {дождь} н/о +26.4 +24.6 90 +37 +37 очень
душно
1010.6 1008.9 0.0
20 20.08 З 2 20 км н/о +25.9 +24.5 92 +36 +36 очень
душно
1010.7 1009.0
22 20.08 З 3 20 км н/о +25.4 +24.5 95 +36 +36 очень
душно
1011.2 1009.5
23 20.08 З 3 20 км н/о +26.4 +24.6 90 +37 +37 очень
душно
1011.4 1009.7
00 21.08 Ю 2 20 км н/о +29.8 +25.1 76 +43 +43 опасность
перегрева
1011.3 1009.7 +25.1 0.0
01 21.08 Ю 3 20 км н/о +30.5 +25.1 73 +44 +44 опасность
перегрева
1011.4 1009.8
02 21.08 ЮВ 3 20 км н/о +30.5 +25.1 73 +44 +44 опасность
перегрева
1011.4 1009.8
03 21.08 ЮВ 3 20 км н/о +30.9 +25.5 73 +45 +45 опасность
перегрева
1011.1 1009.5
05 21.08 ЮВ 4 20 км н/о +31.4 +25.7 72 +46 +46 опасность
перегрева
1010.3 1008.7
06 21.08 Ю 3 20 км н/о +31.0 +25.4 72 +45 +45 опасность
перегрева
1009.7 1008.1
07 21.08 Ю 3 20 км н/о +31.0 +25.4 72 +45 +45 опасность
перегрева
1009.7 1008.1
09 21.08 Ю 4 20 км н/о +29.1 +25.3 80 +42 +42 опасность
перегрева
1010.2 1008.6
10 21.08 Ю 2 20 км н/о +28.1 +24.7 82 +40 +40 очень
душно
1010.8 1009.1
11 21.08 З 3 20 км н/о +27.5 +24.8 85 +39 +39 очень
душно
1011.5 1009.8
12 21.08 З 2 20 км н/о +27.4 +25.1 87 +39 +39 очень
душно
1012.0 1010.3 +31.8
13 21.08 З 3 20 км н/о +27.1 +25.1 89 +39 +39 очень
душно
1012.1 1010.4
15 21.08 З 2 20 км н/о +26.9 +25.1 90 +39 +39 очень
душно
1011.9 1010.2
16 21.08 З 2 20 км н/о +26.2 +24.8 92 +37 +37 очень
душно
1011.4 1009.7
17 21.08 З 3 20 км н/о +26.3 +24.7 91 +37 +37 очень
душно
1010.9 1009.2
18 21.08 З 3 20 км н/о +26.0 +24.8 93 +37 +37 очень
душно
1010.7 1009.0
19 21.08 З 3 20 км слаб. дождь н/о +25.6 +24.4 93 +36 +36 очень
душно
1010.8 1009.1
20 21.08 З 3 20 км в посл. час дождь н/о +25.4 +24.4 94 +35 +35 очень
душно
1010.8 1009.1
22 21.08 СЗ 3 20 км н/о +25.5 +24.3 93 +35 +35 очень
душно
1011.0 1009.3
23 21.08 З 2 20 км н/о +27.3 +25.3 89 +40 +40 очень
душно
1011.2 1009.5
00 22.08 ЮЗ 3 20 км {дождь} н/о +29.3 +24.6 76 +42 +42 опасность
перегрева
1011.2 1009.6 +25.0 0.0
01 22.08 ЮЗ 3 20 км н/о +30.8 +24.7 70 +44 +44 опасность
перегрева
1011.0 1009.4
02 22.08 ЮВ 4 15 км н/о +31.8 +25.7 70 +47 +47 опасность
перегрева
1010.6 1009.0
04 22.08 Ю 4 20 км н/о +31.7 +26.0 72 +47 +47 опасность
перегрева
1009.6 1008.0
05 22.08 Ю 4 20 км н/о +31.7 +26.0 72 +47 +47 опасность
перегрева
1009.0 1007.4
06 22.08 ЮВ 4 20 км н/о +31.3 +26.1 74 +47 +47 опасность
перегрева
1009.1 1007.5
07 22.08 Ю 3 20 км н/о +30.8 +26.1 76 +46 +46 опасность
перегрева
1009.1 1007.5
08 22.08 ЮЗ 4 20 км н/о +30.7 +26.0 76 +46 +46 опасность
перегрева
1009.3 1007.7
09 22.08 ЮЗ 3 20 км н/о +30.8 +25.9 75 +46 +46 опасность
перегрева
1009.2 1007.6
11 22.08 З 2 20 км н/о +28.7 +25.5 83 +42 +42 опасность
перегрева
1010.1 1008.5
12 22.08 З 4 20 км н/о +28.5 +25.3 83 +42 +42 опасность
перегрева
1010.9 1009.2 +32.8
13 22.08 З 3 20 км н/о +28.0 +25.0 84 +40 +40 очень
душно
1010.9 1009.2
14 22.08 З 3 20 км н/о +28.0 +25.0 84 +40 +40 очень
душно
1010.7 1009.0
15 22.08 З 3 20 км н/о +27.9 +25.2 85 +40 +40 очень
душно
1010.6 1008.9
16 22.08 З 5 20 км н/о +27.9 +25.2 85 +40 +40 очень
душно
1010.3 1008.6
17 22.08 З 3 14 км слаб. дождь н/о +27.5 +25.5 89 +40 +40 очень
душно
1010.2 1008.5
18 22.08 ЮЗ 2 20 км в посл. час дождь н/о +27.2 +25.6 91 +40 +40 очень
душно
1009.8 1008.1 0.0
19 22.08 З 2 19 км н/о +27.0 +25.2 90 +39 +39 очень
душно
1009.6 1007.9
20 22.08 З 4 7000 м слаб. дождь н/о +27.0 +25.4 91 +39 +39 очень
душно
1009.8 1008.1
21 22.08 З 3 20 км в посл. час дождь н/о +27.1 +25.1 89 +39 +39 очень
душно
1010.3 1008.6
22 22.08 ЮЗ 4 20 км в посл. час дождь н/о +27.4 +25.2 88 +40 +40 очень
душно
1010.8 1009.1
23 22.08 З 5 20 км н/о +28.3 +25.3 84 +41 +41 опасность
перегрева
1011.2 1009.5
00 23.08 З 4 20 км {дождь} н/о +29.1 +25.7 82 +43 +43 опасность
перегрева
1011.3 1009.7 +26.8 0.5
01 23.08 ЮЗ 5 20 км н/о +31.2 +26.5 76 +48 +48 опасность
перегрева
1011.2 1009.6
02 23.08 ЮЗ 3 20 км н/о +31.5 +25.6 71 +46 +46 опасность
перегрева
1010.9 1009.3
03 23.08 З 4 20 км н/о +30.9 +25.3 72 +45 +45 опасность
перегрева
1010.6 1009.0
04 23.08 З 6 20 км н/о +30.5 +25.1 73 +44 +44 опасность
перегрева
1010.4 1008.8
05 23.08 З 5 20 км н/о +31.5 +25.6 71 +46 +46 опасность
перегрева
1009.8 1008.2
06 23.08 З 4 5000 м слаб. дождь н/о +29.6 +26.0 81 +44 +44 опасность
перегрева
1009.8 1008.2 0.5
07 23.08 З 5 20 км слаб. дождь н/о +29.7 +26.1 81 +45 +45 опасность
перегрева
1009.3 1007.7
08 23.08 ЮЗ 4 20 км в посл. час дождь н/о +29.7 +25.9 80 +44 +44 опасность
перегрева
1009.5 1007.9
09 23.08 З 4 20 км {дождь} н/о +29.1 +25.1 79 +42 +42 опасность
перегрева
1009.8 1008.2
11 23.08 З 3 20 км н/о +28.4 +25.6 85 +42 +42 опасность
перегрева
1010.9 1009.2
13 23.08 ЮЗ 3 20 км н/о +28.1 +25.5 86 +41 +41 опасность
перегрева
1011.6 1009.9
14 23.08 З 4 12 км слаб. дождь н/о +26.8 +25.2 91 +39 +39 очень
душно
1011.8 1010.1
15 23.08 З 3 20 км слаб. дождь н/о +26.4 +24.8 91 +38 +38 очень
душно
1011.8 1010.1
16 23.08 З 4 9000 м слаб. дождь н/о +26.3 +24.9 92 +38 +38 очень
душно
1011.4 1009.7
17 23.08 З 2 20 км слаб. дождь н/о +26.3 +24.7 91 +37 +37 очень
душно
1010.8 1009.1
18 23.08 З 2 20 км в посл. час дождь н/о +26.4 +24.6 90 +37 +37 очень
душно
1010.8 1009.1 6
19 23.08 З 1 20 км слаб. дождь н/о +25.8 +24.9 95 +37 +37 очень
душно
1010.8 1009.1
20 23.08 С 1 20 км в посл. час дождь н/о +25.8 +24.9 95 +37 +37 очень
душно
1010.8 1009.1
21 23.08 ЮВ 1 20 км {дождь} н/о +26.3 +24.5 90 +37 +37 очень
душно
1011.0 1009.3
22 23.08 СЗ 1 20 км н/о +26.3 +25.3 94 +38 +38 очень
душно
1011.3 1009.6
23 23.08 ЮВ 1 20 км н/о +27.4 +25.8 91 +41 +41 опасность
перегрева
1011.6 1009.9
00 24.08 Ю 2 20 км {дождь} н/о +28.2 +25.6 86 +42 +42 опасность
перегрева
1011.6 1009.9 +25.3 6
02 24.08 ЮЗ 3 17 км слаб. дождь н/о +28.7 +25.7 84 +43 +43 опасность
перегрева
1012.2 1010.5
03 24.08 ЮЗ 4 20 км в посл. час дождь н/о +29.9 +25.7 78 +44 +44 опасность
перегрева
1011.5 1009.9
04 24.08 ЮЗ 4 20 км слаб. дождь н/о +30.7 +25.3 73 +45 +45 опасность
перегрева
1010.9 1009.3
05 24.08 СЗ 3 20 км в посл. час дождь н/о +31.0 +25.6 73 +46 +46 опасность
перегрева
1010.7 1009.1
06 24.08 З 4 6000 м слаб. дождь н/о +28.1 +26.9 93 +44 +44 опасность
перегрева
1010.7 1009.0 8
08 24.08 З 2 20 км в посл. час дождь н/о +28.3 +25.5 85 +42 +42 опасность
перегрева
1011.0 1009.3
09 24.08 З 2 20 км слаб. дождь н/о +28.3 +25.7 86 +42 +42 опасность
перегрева
1011.3 1009.6
10 24.08 ЮЗ 2 20 км в посл. час дождь н/о +27.2 +25.0 88 +39 +39 очень
душно
1011.7 1010.0
11 24.08 З 1 20 км н/о +27.1 +25.3 90 +39 +39 очень
душно
1011.6 1009.9
12 24.08 З 1 20 км {дождь} н/о +26.4 +25.4 94 +38 +38 очень
душно
1012.5 1010.8 +32.1 11
13 24.08 СВ 2 5000 м слаб. дождь н/о +25.9 +25.2 96 +37 +37 очень
душно
1012.7 1011.0
14 24.08 СВ 3 5000 м слаб. дождь н/о +25.2 +24.5 96 +35 +35 очень
душно
1012.4 1010.7
15 24.08 СВ 2 10 км в посл. час дождь н/о +24.8 +23.8 94 +34 +34 очень
душно
1012.4 1010.7
16 24.08 СВ 2 9000 м дымка н/о +24.6 +23.6 94 +33 +33 очень
душно
1012.2 1010.5
18 24.08 СВ 3 12 км в посл. час дождь н/о +24.0 +22.6 92 +31 +31 очень
душно
1012.3 1010.6 2
19 24.08 СВ 2 6000 м слаб. дождь н/о +23.7 +22.7 94 +31 +31 очень
душно
1012.4 1010.7
20 24.08 СЗ 2 2500 м слаб. дождь н/о +23.5 +23.0 97 +31 +31 очень
душно
1012.4 1010.7
21 24.08 СЗ 2 6000 м слаб. дождь н/о +23.4 +23.2 99 +33 +33 очень
душно
1012.9 1011.2
22 24.08 З 2 18 км слаб. дождь н/о +23.7 +23.5 99 +32 +32 очень
душно
1013.1 1011.4

 

Местоположение метеостанции Абурацу (Япония): широта 31.58 долгота 131.40 высота над уровнем моря 15 м.

В архиве по умолчанию представлена погода в Абурацу за последнюю неделю. Архивные данные за месяц целиком и за предыдущие месяцы, начиная с января 2011 года, Вы можете получить, выбрав интересующий диапазон дат из раскрывающегося списка и нажав кнопку "Ввод!".


*Определитесь, кто Вы:
робот инопланетянин человек

Внимание! Время в таблицах - всемирное. Для получения местного времени необходимо прибавить поправку, которая равна 9 ч.

Смотрите также архив погоды в соседних городах и на ближайших метеорологических станциях:

Погода в Мияконодзё (Япония) (35 км)
Погода в Миядзаки (Япония) (39 км)
Погода в Кагосиме (Япония) (81 км)
Погода в Хитоёси (Япония) (94 км)
Погода на Танегасиме (Япония) (103 км)
Погода в Макурадзаки (Япония) (110 км)
Погода в Нобеоке (Япония) (114 км)
Погода в Акуне (Япония) (125 км)
Погода в Ушибуке (Япония) (131 км)
Погода на Асо (Япония) (148 км)

Пояснения к столбцам:

Ветер - указаны скорость ветра в м/с - средняя за 10 мин, порывы в срок и между сроками (в фигурных скобках) и направление, откуда дует ветер: С - северный, СВ - северо-восточный, В - восточный, ЮВ - юго-восточный, Ю - южный, ЮЗ - юго-западный, З - западный, СЗ - северо-западный.
Видимость - горизонтальная дальность видимости в метрах или километрах. При видимости от 1 до 10 км при отсутствии осадков обычно наблюдается дымка, при ухудшении видимости до 1 км и менее - туман. В сухую погоду видимость может ухудшаться дымом, пылью или мглою.
Явления - указаны атмосферные явления, наблюдавшиеся в срок или в последний час перед сроком; фигурными скобками обозначены явления, наблюдавшиеся между сроками (за 1-3 часа до срока); квадратными скобками обозначены град или гололедные отложения с указанием их диаметра в мм.
Облачность - указаны через наклонную черту общая и нижняя облачность в баллах и высота нижней границы облаков в метрах; квадратными скобками обозначены формы облаков: Ci - перистые, Cs - перисто-слоистые, Cc - перисто-кучевые, Ac - высококучевые, As - высокослоистые, Sc - слоисто-кучевые, Ns - слоисто-дождевые, Cu - кучевые, Cb - кучево-дождевые. Подробнее классификацию облаков см. в Атласе облаков (PDF).
T - Температура воздуха - температура, измеренная на высоте 2 м над землей.
Td - Температура точки росы - температура, при понижении до которой содержащийся в воздухе водяной пар достигнет насыщения.
f - Относительная влажность воздуха - влажноcть воздуха, измеренная на высоте 2 м над землей.
Te - Эффективная температура - температура, которую ощущает одетый по сезону человек в тени. Характеристика душности погоды. При расчете учитывается влияние влажности воздуха и скорости ветра на теплоощущения человека.
Tes - Эффективная температура на солнце - температура, которую ощущает человек, с поправкой на солнечный нагрев. Характеристика знойности погоды. Зависит от высоты солнца над горизонтом, облачности и скорости ветра. Ночью, в пасмурную погоду, а также при ветре 12 м/с и более поправка равна нулю.
P - Атмосферное давление - приведенное к уровню моря атмосферное давление.
Po - Атмосферное давление - измеренное на уровне метеостанции атмосферное давление.
Tmin - Минимальная температура - минимум температуры воздуха на высоте 2 м над землей.
Tmax - Максимальная температура - максимум температуры воздуха на высоте 2 м над землей.
R - Количество осадков - Количество выпавших осадков за период времени, мм. При наведении курсора мыши на число - период времени, за который выпало указанное количество осадков.
R24 - Количество осадков - Количество выпавших осадков за 24 часа, мм.
S - Снежный покров - Высота снежного покрова, см. При наведении курсора мыши на число - состояние снежного покрова и степень покрытия местности в баллах.